This is the latest recevied weather packets stored in our database for station/object NorthRyde. If no packets are shown the sender has not sent any weather packets the latest 10 day(s).
| Time | Temp. | Humidity | Pressure | Rain* | Wind** | Luminosity | Snow |
|---|---|---|---|---|---|---|---|
| 1778391793 | 21.11° C | 67% | 1029.3 hPa | 0 mm | - | 178 W/m² | - |
| 1778391729 | 21.11° C | 66% | 1029.3 hPa | 0 mm | - | 186 W/m² | - |
| 1778391668 | 21.11° C | 66% | 1029.3 hPa | 0 mm | - | 188 W/m² | - |
| 1778391606 | 21.11° C | 66% | 1029.3 hPa | 0 mm | - | 190 W/m² | - |
| 1778391541 | 21.11° C | 66% | 1029.3 hPa | 0 mm | - | 193 W/m² | - |
| 1778391482 | 21.11° C | 66% | 1029.3 hPa | 0 mm | - | 197 W/m² | - |
| 1778391417 | 21.11° C | 66% | 1029.3 hPa | 0 mm | - | 200 W/m² | - |
| 1778391353 | 21.11° C | 66% | 1029.2 hPa | 0 mm | - | 204 W/m² | - |
| 1778391295 | 21.11° C | 66% | 1029.3 hPa | 0 mm | - | 206 W/m² | - |
| 1778391227 | 21.11° C | 66% | 1029.1 hPa | 0 mm | - | 209 W/m² | - |
| 1778391167 | 21.11° C | 66% | 1029.2 hPa | 0 mm | - | 213 W/m² | - |
| 1778391104 | 21.11° C | 65% | 1029.2 hPa | 0 mm | - | 216 W/m² | - |
| 1778391038 | 21.11° C | 65% | 1029.3 hPa | 0 mm | - | 218 W/m² | - |
| 1778390982 | 21.11° C | 65% | 1029.3 hPa | 0 mm | - | 220 W/m² | - |
| 1778390921 | 21.67° C | 65% | 1029.2 hPa | 0 mm | - | 223 W/m² | - |
| 1778390894 | 21.67° C | 65% | 1029.2 hPa | 0 mm | - | 230 W/m² | - |
| 1778390875 | 21.67° C | 64% | 1029.2 hPa | 0 mm | - | 234 W/m² | - |
| 1778390850 | 21.67° C | 64% | 1029.2 hPa | 0 mm | - | 234 W/m² | - |
| 1778390678 | 21.67° C | 63% | 1029.2 hPa | 0 mm | - | 237 W/m² | - |
| 1778390618 | 21.67° C | 64% | 1029.2 hPa | 0 mm | - | 239 W/m² | - |
| 1778390558 | 21.67° C | 64% | 1029.1 hPa | 0 mm | - | 241 W/m² | - |
| 1778390500 | 21.67° C | 64% | 1029.2 hPa | 0 mm | - | 246 W/m² | - |
| 1778390444 | 21.67° C | 63% | 1029.1 hPa | 0 mm | - | 248 W/m² | - |
| 1778390390 | 21.67° C | 63% | 1029.1 hPa | 0 mm | - | 251 W/m² | - |
| 1778390319 | 21.67° C | 63% | 1029.1 hPa | 0 mm | - | 253 W/m² | - |
* Rain latest hour (hover to see other rain measurements)
** Current wind speed in m/s (hover to see current wind gust speed)